Torna al catalogo

NORBI-2

AttivoRadioamatorePO
NORAD 57206·PAYLOAD·🇷🇺 Russia
Questo nome del satellite non è ancora stato confermato da fonti ufficiali.

Lanciato Jun 27, 2023 da Vostochny Cosmodrome

Loading…

Prossimi Passaggi (prossime 24 ore)

TLE

AggiornatoSource: Space-Track

Epoca: Sep 14, 2026, 12:49 UTC

1 57206U 23091AS  26257.53471444  .00239185  00000-0  98242-3 0  9995
2 57206  97.4914 344.1137 0002176 247.6125 112.4914 15.85379066179438

Traccia NORBI-2 in tempo reale con AllMySat

Download on the App Store